カタログに戻る

BSAT-2C

運用中通信GEO
NORAD 27830·PAYLOAD·🇯🇵 Japan

打ち上げ Jun 11, 2003 から Guiana Space Centre

Loading…

TLE

最新Source: Space-Track

元期: Sep 14, 2026, 06:48 UTC

1 27830U 03028A   26257.28339767 -.00000262  00000-0  00000-0 0  9991
2 27830  10.3790  51.1385 0005736 241.1665 129.8397  0.99203378 47541

AllMySatでBSAT-2Cをリアルタイム追跡

Download on the App Store